Jacksonville, FL

4:42 AM EST on January 18, 2017 (GMT -0500)
Cecil

Weather History for KVQQ - January, 2013

Change the Weather History Date:

Wednesday, January 9, 2013

  Actual Average (KNIP) Record (KNIP)
Temperature  
Mean Temperature 67 °F -  
Max Temperature 75 °F 63 °F 63 °F (2016)
Min Temperature 59 °F 44 °F 37 °F (2017)
Cooling Degree Days 2    
Growing Degree Days 17 (Base 50)    
Moisture  
Dew Point 64 °F    
Average Humidity 97    
Maximum Humidity 100    
Minimum Humidity 83    
Precipitation  
Precipitation 0.00 in - - ()
Sea Level Pressure  
Sea Level Pressure 30.30 in    
Wind  
Wind Speed 1 mph (NE)    
Max Wind Speed 7 mph    
Max Gust Speed -    
Visibility 5 miles    
Events Fog    
Averages and records for this station are not official NWS values.
T = Trace of Precipitation, MM = Missing Value Source: NWS Daily Summary

Daily Weather History Graph

Daily Weather History Graph

Search for Another Location

Airport or City:

Trip Planner

Search our weather history database for the weather conditions in past years. The results will help you decide how hot, cold, wet, or windy it might be!

Date:

Astronomy

Jan. 09, 2013 Rise Set
Actual Time 7:24 AM EST 5:44 PM EST
Civil Twilight 6:58 AM EST 6:10 PM EST
Nautical Twilight 6:29 AM EST 6:40 PM EST
Astronomical Twilight 6:00 AM EST 7:09 PM EST
Moon 5:02 AM EST (1/9) 3:45 PM EST (1/9)
Length of Visible Light 11h 12m
Length of Day
10h 19m
Waning Crescent, 6% of the Moon is Illuminated
Jan 9
Waning Crescent
Jan 11
New
Jan 18
First Quarter
Jan 26
Full
Feb 3
Last Quarter

Hourly Weather History & Observations

Time (EST) Temp. Dew Point Humidity Pressure Visibility Wind Dir Wind Speed Gust Speed Precip Events Conditions
12:15 AM 59.0 °F 59.0 °F 100% 30.26 in 4.0 mi Calm Calm - N/A   Overcast
12:35 AM 59.0 °F 59.0 °F 100% 30.26 in 3.0 mi Calm Calm - N/A   Overcast
1:15 AM 59.0 °F 59.0 °F 100% 30.26 in 2.0 mi Calm Calm - N/A   Overcast
1:35 AM 60.8 °F 60.8 °F 100% 30.27 in 1.5 mi Calm Calm - N/A   Overcast
1:55 AM 60.8 °F 60.8 °F 100% 30.27 in 1.0 mi Calm Calm - N/A   Overcast
2:15 AM 60.8 °F 60.8 °F 100% 30.26 in 1.2 mi Calm Calm - N/A   Overcast
2:35 AM 60.8 °F 60.8 °F 100% 30.26 in 0.5 mi Calm Calm - N/A Fog Fog
2:55 AM 60.8 °F 60.8 °F 100% 30.26 in 0.2 mi Calm Calm - N/A Fog Fog
3:15 AM 60.8 °F 60.8 °F 100% 30.26 in 0.2 mi Calm Calm - N/A Fog Fog
3:35 AM 60.8 °F 60.8 °F 100% 30.25 in 0.2 mi Calm Calm - N/A Fog Fog
3:55 AM 60.8 °F 60.8 °F 100% 30.25 in 0.2 mi Calm Calm - N/A Fog Fog
4:15 AM 60.8 °F 60.8 °F 100% 30.25 in 0.2 mi Calm Calm - N/A Fog Fog
4:35 AM 60.8 °F 60.8 °F 100% 30.25 in 0.2 mi Calm Calm - N/A Fog Fog
4:55 AM 60.8 °F 60.8 °F 100% 30.25 in 0.8 mi Calm Calm - N/A   Overcast
5:15 AM 60.8 °F 60.8 °F 100% 30.25 in 0.2 mi Calm Calm - N/A Fog Fog
5:35 AM 60.8 °F 60.8 °F 100% 30.26 in 0.2 mi Calm Calm - N/A Fog Fog
5:55 AM 60.8 °F 60.8 °F 100% 30.26 in 0.2 mi Calm Calm - N/A Fog Fog
6:15 AM 62.6 °F 62.6 °F 100% 30.26 in 0.2 mi Calm Calm - N/A Fog Fog
6:35 AM 62.6 °F 62.6 °F 100% 30.27 in 0.2 mi Calm Calm - N/A Fog Fog
6:50 AM 62.6 °F 62.6 °F 100% 30.27 in 0.2 mi Calm Calm - N/A Fog Fog
7:50 AM 62.6 °F 62.6 °F 100% 30.30 in 0.2 mi Calm Calm - N/A Fog Fog
8:50 AM 62.6 °F 62.6 °F 100% 30.33 in 0.2 mi Calm Calm - N/A Fog Fog
9:50 AM 64.4 °F 64.4 °F 100% 30.34 in 0.8 mi Calm Calm - N/A   Overcast
10:50 AM 66.2 °F 66.2 °F 100% 30.34 in 3.0 mi NNE 4.6 mph - N/A   Overcast
11:50 AM 71.6 °F 68.0 °F 88% 30.33 in 4.0 mi NE 4.6 mph - N/A   Overcast
12:04 PM 73.4 °F 68.0 °F 83% 30.31 in 4.0 mi ENE 3.5 mph - N/A   Overcast
12:50 PM 73.4 °F 69.8 °F 88% 30.30 in 5.0 mi East 4.6 mph - N/A   Overcast
1:50 PM 75.2 °F 69.8 °F 83% 30.28 in 10.0 mi NE 4.6 mph - N/A   Overcast
2:50 PM 75.2 °F 69.8 °F 83% 30.28 in 10.0 mi ENE 5.8 mph - N/A   Overcast
3:50 PM 75.2 °F 69.8 °F 83% 30.29 in 10.0 mi NE 4.6 mph - N/A   Mostly Cloudy
4:50 PM 73.4 °F 68.0 °F 83% 30.29 in 10.0 mi NE 5.8 mph - N/A   Scattered Clouds
5:50 PM 71.6 °F 68.0 °F 88% 30.31 in 10.0 mi NE 5.8 mph - N/A   Overcast
6:50 PM 66.2 °F 66.2 °F 100% 30.33 in 10.0 mi NE 4.6 mph - N/A   Mostly Cloudy
7:50 PM 66.2 °F 66.2 °F 100% 30.33 in 10.0 mi NNE 4.6 mph - N/A   Overcast
8:15 PM 66.2 °F 66.2 °F 100% 30.34 in 10.0 mi NE 6.9 mph - N/A   Overcast
8:35 PM 66.2 °F 66.2 °F 100% 30.35 in 10.0 mi NE 5.8 mph - N/A   Overcast
9:15 PM 66.2 °F 66.2 °F 100% 30.35 in 10.0 mi NE 4.6 mph - N/A   Overcast
9:35 PM 66.2 °F 66.2 °F 100% 30.35 in 10.0 mi Calm Calm - N/A   Overcast
9:55 PM 66.2 °F 66.2 °F 100% 30.35 in 10.0 mi ENE 3.5 mph - N/A   Mostly Cloudy
10:15 PM 66.2 °F 66.2 °F 100% 30.35 in 10.0 mi ENE 4.6 mph - N/A   Mostly Cloudy
10:35 PM 66.2 °F 66.2 °F 100% 30.35 in 10.0 mi ENE 4.6 mph - N/A   Mostly Cloudy
10:55 PM 66.2 °F 66.2 °F 100% 30.36 in 10.0 mi Calm Calm - N/A   Overcast
11:15 PM 66.2 °F 66.2 °F 100% 30.36 in 10.0 mi Calm Calm - N/A   Overcast
11:35 PM 66.2 °F 66.2 °F 100% 30.36 in 9.0 mi Calm Calm - N/A   Overcast
11:55 PM 66.2 °F 66.2 °F 100% 30.37 in 10.0 mi Calm Calm - N/A   Overcast